TimeCDT,TemperatureF,Dew PointF,Humidity,Sea Level PressureIn,VisibilityMPH,Wind Direction,Wind SpeedMPH,Gust SpeedMPH,PrecipitationIn,Events,Conditions,WindDirDegrees,DateUTC
12:15 AM,79.7,67.8,67,29.86,10.0,SSE,10.4,-,N/A,,Clear,160,2013-05-21 05:15:00
12:35 AM,79.7,68.0,67,29.85,10.0,SSE,11.5,-,N/A,,Clear,160,2013-05-21 05:35:00
12:55 AM,79.7,68.2,68,29.84,10.0,SSE,13.8,-,N/A,,Scattered Clouds,160,2013-05-21 05:55:00
1:15 AM,79.7,68.4,68,29.84,10.0,SSE,11.5,-,N/A,,Scattered Clouds,160,2013-05-21 06:15:00
1:35 AM,79.3,68.7,70,29.84,10.0,SSE,11.5,-,N/A,,Mostly Cloudy,160,2013-05-21 06:35:00
1:55 AM,79.5,68.9,70,29.84,10.0,SSE,11.5,18.4,N/A,,Mostly Cloudy,160,2013-05-21 06:55:00
2:15 AM,79.0,68.7,71,29.82,10.0,SSE,12.7,20.7,N/A,Rain-Thunderstorm,Light Thunderstorms and Rain,160,2013-05-21 07:15:00
2:35 AM,78.8,68.9,72,29.82,10.0,SSW,20.7,35.7,N/A,Thunderstorm,Mostly Cloudy,200,2013-05-21 07:35:00
2:55 AM,69.4,62.2,78,29.88,3.0,West,26.5,35.7,0.11,Rain-Thunderstorm,Heavy Thunderstorms and Rain,270,2013-05-21 07:55:00
3:15 AM,68.5,62.8,82,29.91,10.0,WSW,12.7,21.9,N/A,Rain-Thunderstorm,Light Thunderstorms and Rain,240,2013-05-21 08:15:00
3:35 AM,68.5,63.1,83,29.89,10.0,West,9.2,-,N/A,Rain-Thunderstorm,Rain,270,2013-05-21 08:35:00
3:55 AM,68.2,63.0,83,29.87,10.0,Calm,Calm,-,0.02,Rain,Light Rain,0,2013-05-21 08:55:00
4:15 AM,68.5,63.3,83,29.86,10.0,ESE,6.9,-,0.01,Rain-Thunderstorm,Light Thunderstorms and Rain,120,2013-05-21 09:15:00
4:35 AM,68.0,63.1,84,29.84,10.0,ESE,8.1,-,0.01,Rain-Thunderstorm,Light Thunderstorms and Rain,120,2013-05-21 09:35:00
4:55 AM,68.0,63.5,85,29.83,10.0,North,3.5,-,0.01,,Scattered Clouds,10,2013-05-21 09:55:00
5:15 AM,68.0,63.5,85,29.85,10.0,Calm,Calm,-,N/A,,Clear,0,2013-05-21 10:15:00
5:35 AM,67.8,63.7,87,29.85,10.0,SE,6.9,-,N/A,,Clear,140,2013-05-21 10:35:00
5:55 AM,68.2,64.4,88,29.88,10.0,SSE,15.0,20.7,N/A,,Mostly Cloudy,160,2013-05-21 10:55:00
6:15 AM,68.2,64.4,88,29.91,10.0,SSE,12.7,19.6,N/A,,Mostly Cloudy,160,2013-05-21 11:15:00
6:35 AM,68.4,64.4,87,29.92,10.0,SSE,15.0,20.7,N/A,,Mostly Cloudy,160,2013-05-21 11:35:00
6:55 AM,68.9,64.4,86,29.89,10.0,SSE,8.1,-,N/A,Rain,Light Rain,150,2013-05-21 11:55:00
7:15 AM,68.9,64.4,86,29.85,10.0,SSE,15.0,18.4,N/A,Rain,Light Rain,150,2013-05-21 12:15:00
7:35 AM,69.8,64.2,82,29.82,10.0,SSE,19.6,24.2,N/A,Rain,Light Rain,160,2013-05-21 12:35:00
7:55 AM,70.5,63.5,78,29.84,10.0,South,18.4,25.3,N/A,,Clear,170,2013-05-21 12:55:00
8:15 AM,71.6,63.5,76,29.87,10.0,SSW,15.0,21.9,N/A,,Clear,200,2013-05-21 13:15:00
8:35 AM,72.0,63.5,75,29.90,10.0,SW,13.8,18.4,N/A,,Scattered Clouds,220,2013-05-21 13:35:00
8:55 AM,72.5,64.2,75,29.94,10.0,SW,16.1,26.5,N/A,,Mostly Cloudy,220,2013-05-21 13:55:00
9:15 AM,72.5,64.4,76,29.92,10.0,SSW,13.8,27.6,N/A,,Scattered Clouds,200,2013-05-21 14:15:00
9:35 AM,71.6,63.9,76,29.91,10.0,SSW,13.8,20.7,N/A,Rain-Thunderstorm,Light Thunderstorms and Rain,200,2013-05-21 14:35:00
9:55 AM,70.0,63.5,80,29.90,10.0,SSW,11.5,23.0,0.01,Rain-Thunderstorm,Rain,200,2013-05-21 14:55:00
10:15 AM,69.1,63.9,83,29.88,7.0,South,9.2,-,0.02,Rain,Rain,170,2013-05-21 15:15:00
10:35 AM,69.4,64.6,84,29.83,10.0,East,9.2,-,0.04,Rain,Light Rain,100,2013-05-21 15:35:00
10:55 AM,69.1,64.6,86,29.87,10.0,SSE,16.1,24.2,0.04,,Mostly Cloudy,160,2013-05-21 15:55:00
11:15 AM,69.4,64.9,86,29.87,10.0,SSE,15.0,20.7,N/A,,Scattered Clouds,160,2013-05-21 16:15:00
11:35 AM,70.3,65.3,84,29.88,10.0,South,16.1,20.7,N/A,,Clear,180,2013-05-21 16:35:00
11:55 AM,71.1,64.9,81,29.88,10.0,South,12.7,18.4,N/A,,Clear,180,2013-05-21 16:55:00
12:15 PM,71.8,64.4,77,29.87,10.0,South,12.7,18.4,N/A,,Clear,180,2013-05-21 17:15:00
12:35 PM,73.9,65.1,74,29.87,10.0,South,11.5,-,N/A,,Clear,180,2013-05-21 17:35:00
12:55 PM,76.8,65.3,67,29.87,10.0,SSW,11.5,-,N/A,,Clear,210,2013-05-21 17:55:00
1:15 PM,77.0,64.8,66,29.87,10.0,SSW,8.1,16.1,N/A,,Clear,210,2013-05-21 18:15:00
1:35 PM,78.6,64.6,62,29.87,10.0,SW,11.5,19.6,N/A,,Clear,230,2013-05-21 18:35:00
1:55 PM,77.9,63.9,62,29.86,10.0,SW,12.7,24.2,N/A,,Clear,220,2013-05-21 18:55:00
2:15 PM,77.0,62.2,60,29.86,10.0,SW,10.4,20.7,N/A,,Clear,230,2013-05-21 19:15:00
2:35 PM,77.0,64.2,65,29.85,10.0,SSW,6.9,-,N/A,,Clear,210,2013-05-21 19:35:00
2:55 PM,79.7,66.0,63,29.84,10.0,SSW,10.4,16.1,N/A,,Clear,210,2013-05-21 19:55:00
3:15 PM,78.6,67.1,68,29.83,10.0,SSW,9.2,17.3,N/A,Thunderstorm,Clear,210,2013-05-21 20:15:00
3:35 PM,80.6,69.1,68,29.82,10.0,SW,10.4,-,N/A,,Scattered Clouds,230,2013-05-21 20:35:00
3:55 PM,80.1,68.9,69,29.82,10.0,SSW,9.2,-,N/A,Thunderstorm,Mostly Cloudy,210,2013-05-21 20:55:00
4:15 PM,79.0,68.2,69,29.81,10.0,SSW,8.1,-,N/A,Rain,Light Rain,200,2013-05-21 21:15:00
4:35 PM,77.4,68.9,75,29.80,7.0,SW,5.8,-,0.04,Rain,Heavy Rain,220,2013-05-21 21:35:00
4:55 PM,76.5,68.9,77,29.80,10.0,SSE,3.5,-,0.06,Thunderstorm,Thunderstorm,150,2013-05-21 21:55:00
5:35 PM,68.9,64.0,84,29.82,4.0,WSW,9.2,16.1,0.32,Rain-Thunderstorm,Heavy Thunderstorms and Rain,250,2013-05-21 22:35:00
5:55 PM,69.1,64.8,86,29.80,5.0,Calm,Calm,-,0.37,Rain-Thunderstorm,Thunderstorms and Rain,0,2013-05-21 22:55:00
6:15 PM,69.1,65.3,88,29.80,5.0,SE,10.4,-,0.04,Rain-Thunderstorm,Thunderstorms and Rain,130,2013-05-21 23:15:00
6:35 PM,68.9,65.3,88,29.78,5.0,ESE,9.2,-,0.08,Rain,Rain,120,2013-05-21 23:35:00
6:55 PM,68.9,65.3,88,29.79,10.0,SE,12.7,-,0.11,Rain,Light Rain,140,2013-05-21 23:55:00
7:15 PM,68.7,65.3,89,29.80,10.0,SE,16.1,-,0.01,Rain-Thunderstorm,Rain,140,2013-05-22 00:15:00
7:35 PM,68.9,65.5,89,29.79,10.0,SE,13.8,18.4,0.04,Rain,Rain,140,2013-05-22 00:35:00
7:55 PM,68.9,65.5,89,29.78,10.0,SE,13.8,-,0.06,Rain,Light Rain,140,2013-05-22 00:55:00
8:15 PM,68.9,65.5,89,29.78,10.0,SSE,17.3,23.0,N/A,Rain,Light Rain,150,2013-05-22 01:15:00
8:35 PM,69.3,65.7,88,29.77,10.0,SSE,18.4,24.2,N/A,,Light Drizzle,150,2013-05-22 01:35:00
8:55 PM,70.0,65.8,87,29.77,10.0,South,13.8,21.9,N/A,Thunderstorm,Clear,170,2013-05-22 01:55:00
9:15 PM,69.8,65.5,86,29.80,10.0,SSW,10.4,16.1,N/A,Rain,Light Rain,210,2013-05-22 02:15:00
9:35 PM,69.8,65.5,86,29.82,10.0,WSW,13.8,-,N/A,Rain,Light Rain,250,2013-05-22 02:35:00
9:55 PM,70.2,65.5,85,29.82,10.0,WSW,5.8,-,N/A,,Overcast,250,2013-05-22 02:55:00
10:15 PM,69.8,65.3,86,29.82,10.0,South,5.8,-,N/A,,Drizzle,180,2013-05-22 03:15:00
10:35 PM,69.8,65.3,86,29.82,7.0,South,8.1,-,N/A,,Overcast,180,2013-05-22 03:35:00
10:55 PM,69.4,65.3,87,29.80,10.0,South,11.5,-,N/A,,Overcast,170,2013-05-22 03:55:00
11:15 PM,69.4,65.3,87,29.81,10.0,South,16.1,-,N/A,,Overcast,170,2013-05-22 04:15:00
11:35 PM,69.3,65.3,87,29.81,7.0,South,9.2,-,0.01,Rain,Rain,170,2013-05-22 04:35:00
11:55 PM,68.9,64.9,87,29.81,10.0,SSE,15.0,19.6,0.01,Rain,Light Rain,160,2013-05-22 04:55:00